Location: Newark
(12.4436°N, 0.6167°W)
Time: 00:59:58
(UTC+00:00)

Vanguard 2 - Pass Details

Date: 13 December 2019
Orbit: 553 x 2938 km, 32.9° (Epoch: 27 January)

Event Time Altitude Azimuth Distance (km) Brightness Sun altitude
Rises 20:10:30 0° 204° (SSW) 3,595 11.5 -35.4°
Reaches altitude 10° 20:13:07 10° 191° (SSW) 2,916 10.8 -36.0°
Enters shadow 20:16:25 23° 165° (SSE) 2,406 10.0 -36.8°
Maximum altitude 20:19:17 28° 134° (SE) 2,434 - -37.4°
Drops below altitude 10° 20:28:28 10° 81° (E) 4,454 - -39.6°
Sets 20:33:33 0° 71° (ENE) 5,876 - -40.7°
